• In Uzbekistan
  • List of Countries
  • For 7 days
  • Water Temperature
  • Satellite Maps
  • Weather Map
  • Weather Widgets
  • user-avatar
    Login

    Hourly Weather Benguela

    Today, 27 June, Tuesday

    Time Temperature Precipitation Wind Pressure Humidity
    00:00 +24°C° 0 mm 2 mps 761 mmHg 80%
    01:00 +24°C° 0 mm 2 mps 760 mmHg 81%
    02:00 +24°C° 0 mm 2 mps 760 mmHg 78%
    03:00 +24°C° 0 mm 2 mps 760 mmHg 76%
    04:00 +24°C° 0 mm 2 mps 760 mmHg 74%
    05:00 +24°C° 0 mm 2 mps 760 mmHg 69%
    06:00 +25°C° 0 mm 2 mps 760 mmHg 65%
    07:00 +25°C° 0 mm 2 mps 760 mmHg 61%
    08:00 +28°C° 0 mm 2 mps 760 mmHg 51%
    09:00 +31°C° 0 mm 2 mps 761 mmHg 41%
    10:00 +35°C° 0 mm 2 mps 761 mmHg 30%
    11:00 +36°C° 0 mm 3 mps 760 mmHg 29%
    12:00 +37°C° 0 mm 4 mps 760 mmHg 27%
    13:00 +38°C° 0 mm 4 mps 759 mmHg 26%
    14:00 +37°C° 0 mm 5 mps 759 mmHg 30%
    15:00 +36°C° 0 mm 5 mps 758 mmHg 33%
    16:00 +36°C° 0 mm 5 mps 758 mmHg 37%
    17:00 +33°C° 0 mm 5 mps 758 mmHg 45%
    18:00 +30°C° 0 mm 4 mps 759 mmHg 53%
    19:00 +28°C° 0 mm 4 mps 759 mmHg 62%
    20:00 +27°C° 0 mm 4 mps 760 mmHg 63%
    21:00 +27°C° 0 mm 3 mps 760 mmHg 64%
    22:00 +27°C° 0 mm 3 mps 761 mmHg 66%
    23:00 +26°C° 0 mm 3 mps 760 mmHg 67%

    Tomorrow, 28 June, Wednesday

    Time Temperature Precipitation Wind Pressure Humidity
    00:00 +26°C° 0 mm 2 mps 760 mmHg 68%
    01:00 +25°C° 0 mm 2 mps 760 mmHg 69%
    02:00 +25°C° 0 mm 2 mps 760 mmHg 67%
    03:00 +25°C° 0 mm 2 mps 759 mmHg 65%
    04:00 +25°C° 0 mm 2 mps 759 mmHg 63%
    05:00 +25°C° 0 mm 2 mps 759 mmHg 59%
    06:00 +25°C° 0 mm 2 mps 759 mmHg 56%
    07:00 +26°C° 0 mm 2 mps 760 mmHg 52%
    08:00 +28°C° 0 mm 2 mps 760 mmHg 43%
    09:00 +31°C° 0 mm 2 mps 760 mmHg 34%
    10:00 +35°C° 0 mm 2 mps 760 mmHg 25%
    11:00 +36°C° 0 mm 3 mps 759 mmHg 26%
    12:00 +37°C° 0 mm 3 mps 759 mmHg 27%
    13:00 +38°C° 0 mm 3 mps 758 mmHg 27%
    14:00 +37°C° 0 mm 4 mps 758 mmHg 31%
    15:00 +36°C° 0 mm 4 mps 757 mmHg 35%
    16:00 +35°C° 0 mm 4 mps 757 mmHg 39%
    17:00 +33°C° 0 mm 3 mps 757 mmHg 47%
    18:00 +30°C° 0 mm 3 mps 758 mmHg 56%
    19:00 +28°C° 0 mm 2 mps 758 mmHg 65%
    20:00 +27°C° 0 mm 2 mps 759 mmHg 67%
    21:00 +27°C° 0 mm 2 mps 759 mmHg 69%
    22:00 +26°C° 0 mm 2 mps 759 mmHg 71%
    23:00 +26°C° 0 mm 2 mps 759 mmHg 72%

    Day after tomorrow, 29 June, Thursday

    Time Temperature Precipitation Wind Pressure Humidity
    00:00 +25°C° 0 mm 2 mps 759 mmHg 73%
    01:00 +25°C° 0 mm 2 mps 759 mmHg 74%
    02:00 +25°C° 0 mm 1 mps 759 mmHg 74%
    03:00 +24°C° 0 mm 1 mps 759 mmHg 75%
    04:00 +24°C° 0 mm 1 mps 758 mmHg 75%
    05:00 +24°C° 0 mm 2 mps 759 mmHg 75%
    06:00 +24°C° 0 mm 2 mps 759 mmHg 74%
    07:00 +24°C° 0 mm 2 mps 760 mmHg 74%
    08:00 +27°C° 0 mm 3 mps 760 mmHg 64%
    09:00 +30°C° 0 mm 3 mps 760 mmHg 55%
    10:00 +33°C° 0 mm 4 mps 761 mmHg 45%
    11:00 +34°C° 0 mm 4 mps 760 mmHg 44%
    12:00 +35°C° 0 mm 4 mps 759 mmHg 42%
    13:00 +36°C° 0 mm 4 mps 759 mmHg 40%
    14:00 +35°C° 0 mm 4 mps 758 mmHg 44%
    15:00 +34°C° 0 mm 4 mps 758 mmHg 47%
    16:00 +33°C° 0 mm 3 mps 758 mmHg 51%
    17:00 +30°C° 0 mm 3 mps 758 mmHg 60%
    18:00 +28°C° 0 mm 2 mps 759 mmHg 69%
    19:00 +26°C° 0 mm 2 mps 760 mmHg 78%
    20:00 +26°C° 0 mm 2 mps 760 mmHg 80%
    21:00 +25°C° 0 mm 1 mps 760 mmHg 83%
    22:00 +25°C° 0 mm 1 mps 761 mmHg 85%
    23:00 +25°C° 0 mm 1 mps 760 mmHg 84%

    30 June, Friday

    Time Temperature Precipitation Wind Pressure Humidity
    00:00 +25°C° 0 mm 2 mps 760 mmHg 83%
    01:00 +25°C° 0 mm 2 mps 760 mmHg 83%
    02:00 +25°C° 0 mm 2 mps 760 mmHg 81%
    03:00 +25°C° 0 mm 2 mps 759 mmHg 80%
    04:00 +25°C° 0 mm 2 mps 759 mmHg 79%
    05:00 +25°C° 0 mm 2 mps 760 mmHg 76%
    06:00 +25°C° 0 mm 2 mps 760 mmHg 73%
    07:00 +25°C° 0 mm 2 mps 761 mmHg 70%
    08:00 +28°C° 0 mm 2 mps 761 mmHg 60%
    09:00 +30°C° 0 mm 2 mps 761 mmHg 50%
    10:00 +34°C° 0 mm 2 mps 761 mmHg 41%
    11:00 +34°C° 0 mm 3 mps 761 mmHg 40%
    12:00 +35°C° 0 mm 3 mps 760 mmHg 40%
    13:00 +36°C° 0 mm 4 mps 759 mmHg 39%
    14:00 +35°C° 0 mm 4 mps 759 mmHg 43%
    15:00 +34°C° 0 mm 4 mps 759 mmHg 47%
    16:00 +33°C° 0 mm 4 mps 758 mmHg 51%
    17:00 +30°C° 0 mm 3 mps 759 mmHg 59%
    18:00 +29°C° 0 mm 3 mps 759 mmHg 67%
    19:00 +27°C° 0 mm 3 mps 760 mmHg 75%
    20:00 +26°C° 0 mm 2 mps 760 mmHg 76%
    21:00 +26°C° 0 mm 2 mps 760 mmHg 78%
    22:00 +25°C° 0 mm 1 mps 761 mmHg 79%
    23:00 +25°C° 0 mm 2 mps 760 mmHg 80%

    1 July, Saturday

    Time Temperature Precipitation Wind Pressure Humidity
    00:00 +25°C° 0 mm 2 mps 760 mmHg 80%
    01:00 +25°C° 0 mm 2 mps 760 mmHg 81%
    02:00 +25°C° 0 mm 2 mps 760 mmHg 79%
    03:00 +24°C° 0 mm 2 mps 760 mmHg 77%
    04:00 +24°C° 0 mm 2 mps 759 mmHg 76%
    05:00 +24°C° 0 mm 2 mps 760 mmHg 73%
    06:00 +25°C° 0 mm 2 mps 760 mmHg 70%
    07:00 +25°C° 0 mm 1 mps 760 mmHg 67%
    08:00 +28°C° 0 mm 2 mps 761 mmHg 56%
    09:00 +30°C° 0 mm 2 mps 761 mmHg 46%
    10:00 +34°C° 0 mm 2 mps 761 mmHg 36%
    11:00 +35°C° 0 mm 3 mps 760 mmHg 35%
    12:00 +36°C° 0 mm 3 mps 759 mmHg 35%
    13:00 +37°C° 0 mm 4 mps 759 mmHg 34%
    14:00 +36°C° 0 mm 4 mps 758 mmHg 38%
    15:00 +35°C° 0 mm 3 mps 758 mmHg 42%
    16:00 +34°C° 0 mm 3 mps 757 mmHg 47%
    17:00 +31°C° 0 mm 3 mps 758 mmHg 56%
    18:00 +29°C° 0 mm 3 mps 759 mmHg 65%
    19:00 +27°C° 0 mm 2 mps 759 mmHg 74%
    20:00 +26°C° 0 mm 2 mps 759 mmHg 75%
    21:00 +26°C° 0 mm 2 mps 760 mmHg 77%
    22:00 +25°C° 0 mm 1 mps 760 mmHg 79%
    23:00 +25°C° 0 mm 1 mps 760 mmHg 80%

    2 July, Sunday

    Time Temperature Precipitation Wind Pressure Humidity
    00:00 +25°C° 0 mm 1 mps 759 mmHg 80%
    01:00 +25°C° 0 mm 2 mps 759 mmHg 81%
    02:00 +25°C° 0 mm 2 mps 759 mmHg 78%
    03:00 +25°C° 0 mm 2 mps 759 mmHg 76%
    04:00 +24°C° 0 mm 2 mps 759 mmHg 74%
    05:00 +25°C° 0 mm 2 mps 759 mmHg 70%
    06:00 +25°C° 0 mm 2 mps 759 mmHg 67%
    07:00 +25°C° 0 mm 1 mps 760 mmHg 63%
    08:00 +28°C° 0 mm 2 mps 760 mmHg 54%
    09:00 +30°C° 0 mm 2 mps 760 mmHg 44%
    10:00 +34°C° 0 mm 3 mps 760 mmHg 35%
    11:00 +35°C° 0 mm 3 mps 759 mmHg 36%
    12:00 +35°C° 0 mm 4 mps 759 mmHg 37%
    13:00 +36°C° 0 mm 4 mps 758 mmHg 38%
    14:00 +35°C° 0 mm 4 mps 758 mmHg 42%
    15:00 +35°C° 0 mm 4 mps 757 mmHg 46%
    16:00 +34°C° 0 mm 3 mps 757 mmHg 50%
    17:00 +31°C° 0 mm 3 mps 758 mmHg 60%
    18:00 +28°C° 0 mm 2 mps 758 mmHg 69%
    19:00 +26°C° 0 mm 2 mps 759 mmHg 79%
    20:00 +26°C° 0 mm 2 mps 759 mmHg 81%
    21:00 +25°C° 0 mm 1 mps 759 mmHg 82%
    22:00 +25°C° 0 mm 1 mps 760 mmHg 83%
    23:00 +25°C° 0 mm 1 mps 759 mmHg 83%
    Show more